Location: Stara Lesna
(49.1528°N, 20.2911°E)
Time: 10:01:24
(UTC+02:00)

CZ-4C R/B - Pass Details

Date: 13 July 2020
Orbit: 463 x 636 km, 98.0° (Epoch: 05 August)

Event Time Altitude Azimuth Distance (km) Brightness Sun altitude
Exits shadow 01:39:57 17° 128° (SE) 1,396 5.1 -18.0°
Maximum altitude 01:42:27 36° 69° (ENE) 834 4.5 -17.9°
Drops below altitude 10° 01:45:51 10° 2° (N) 1,718 7.0 -17.8°
Sets 01:47:59 0° 354° (N) 2,582 8.0 -17.7°
